Weather History for Jacksonville, FL

Change the Weather History Date:

Monday, January 27, 2014

  Actual Average Record
Temperature  
Mean Temperature 58 °F 54 °F  
Max Temperature 74 °F 66 °F 84 °F (1962)
Min Temperature 42 °F 42 °F 17 °F (1940)
Degree Days  
Heating Degree Days 7 12  
Month to date heating degree days 402 337  
Since 1 July heating degree days 760 833  
Cooling Degree Days 0 0  
Month to date cooling degree days 9 0  
Year to date cooling degree days 9 0  
Growing Degree Days 8 (Base 50)    
Moisture  
Dew Point 50 °F    
Average Humidity 73    
Maximum Humidity 100    
Minimum Humidity 46    
Precipitation  
Precipitation 0.00 in 0.11 in 1.11 in (1873)
Month to date precipitation 6.06 2.84  
Year to date precipitation 6.06 2.84  
Snow  
Snow 0.00 in 0.00 in 0.00 in (2002)
Month to date snowfall 0.0 0.0  
Since 1 July snowfall 0.0 T  
Snow Depth 0.00 in    
Sea Level Pressure  
Sea Level Pressure 29.97 in    
Wind  
Wind Speed 5 mph (WSW)    
Max Wind Speed 20 mph    
Max Gust Speed 24 mph    
Visibility 10 miles    
Events      
T = Trace of Precipitation, MM = Missing Value Source: NWS Daily Summary

Daily Weather History Graph

Daily Weather History Graph

Search for Another Location

Airport:

Trip Planner

Search our weather history database for the weather conditions in past years. The results will help you decide how hot, cold, wet, or windy it might be!

Date:

Astronomy

Jan. 27, 2014 Rise Set
Actual Time 7:20 AM EST 5:58 PM EST
Civil Twilight 6:55 AM EST 6:24 PM EST
Nautical Twilight 6:26 AM EST 6:53 PM EST
Astronomical Twilight 5:57 AM EST 7:21 PM EST
Moon 3:57 AM EST (1/27) 2:46 PM EST (1/27)
Length of Visible Light 11h 29m
Length of Day
10h 38m
Waning Crescent, 15% of the Moon is Illuminated
Jan 27
Waning Crescent
Jan 30
New
Feb 6
First Quarter
Feb 14
Full
Feb 22
Last Quarter

Hourly Weather History & Observations

Time (EST) Temp. Dew Point Humidity Pressure Visibility Wind Dir Wind Speed Gust Speed Precip Events Conditions
12:56 AM 44.1 °F 43.0 °F 96% 30.00 in 10.0 mi Calm Calm - N/A   Mostly Cloudy
1:56 AM 43.0 °F 43.0 °F 100% 30.00 in 9.0 mi Calm Calm - N/A   Mostly Cloudy
2:56 AM 45.0 °F 44.1 °F 97% 29.99 in 9.0 mi Calm Calm - N/A   Mostly Cloudy
3:56 AM 46.0 °F 46.0 °F 100% 29.99 in 10.0 mi Calm Calm - N/A   Overcast
4:56 AM 48.9 °F 46.9 °F 93% 29.98 in 10.0 mi Calm Calm - N/A   Overcast
5:56 AM 48.9 °F 46.9 °F 93% 29.99 in 10.0 mi Calm Calm - N/A   Overcast
6:56 AM 50.0 °F 48.0 °F 93% 30.00 in 10.0 mi SSE 4.6 mph - N/A   Mostly Cloudy
7:56 AM 50.0 °F 48.0 °F 93% 30.02 in 10.0 mi Calm Calm - N/A   Mostly Cloudy
8:56 AM 57.0 °F 50.0 °F 77% 30.01 in 10.0 mi Calm Calm - N/A   Partly Cloudy
9:56 AM 61.0 °F 52.0 °F 72% 30.01 in 10.0 mi WSW 5.8 mph - N/A   Partly Cloudy
10:56 AM 66.0 °F 52.0 °F 60% 30.02 in 10.0 mi WSW 8.1 mph - N/A   Partly Cloudy
11:56 AM 70.0 °F 51.1 °F 51% 29.99 in 10.0 mi West 10.4 mph - N/A   Partly Cloudy
12:56 PM 72.0 °F 51.1 °F 48% 29.95 in 10.0 mi WSW 12.7 mph - N/A   Partly Cloudy
1:56 PM 73.0 °F 52.0 °F 48% 29.92 in 10.0 mi West 12.7 mph - N/A   Partly Cloudy
2:56 PM 73.0 °F 51.1 °F 46% 29.91 in 10.0 mi WSW 15.0 mph - N/A   Partly Cloudy
3:56 PM 72.0 °F 51.1 °F 48% 29.90 in 10.0 mi WSW 8.1 mph - N/A   Partly Cloudy
4:56 PM 72.0 °F 51.1 °F 48% 29.91 in 10.0 mi West 10.4 mph - N/A   Partly Cloudy
5:56 PM 66.9 °F 52.0 °F 59% 29.92 in 10.0 mi SW 5.8 mph - N/A   Partly Cloudy
6:56 PM 62.1 °F 53.1 °F 72% 29.94 in 10.0 mi Calm Calm - N/A   Partly Cloudy
7:56 PM 57.9 °F 52.0 °F 81% 29.95 in 10.0 mi Calm Calm - N/A   Partly Cloudy
8:56 PM 55.9 °F 52.0 °F 87% 29.97 in 10.0 mi SW 4.6 mph - N/A   Scattered Clouds
9:56 PM 57.9 °F 52.0 °F 81% 29.99 in 10.0 mi WSW 6.9 mph - N/A   Partly Cloudy
10:56 PM 57.0 °F 52.0 °F 83% 30.01 in 10.0 mi WSW 4.6 mph - N/A   Mostly Cloudy
11:56 PM 57.9 °F 53.1 °F 84% 30.00 in 10.0 mi Calm Calm - N/A   Overcast